Find Globalstar M019

NORAD ID: 25677 Int'l Des: 1999-019 Owner: GLOBT Country: US Constellation: globalstar operational
LEOCIRCULAR

Aktuelle Ansicht

3D-Globus wird geladen...

Über Globalstar M019

Beschreibung wird geladen...

Nächste Überflüge

Passes for default location (London). Set your location on the main map for personalized predictions.

Höhenverlauf

Loading altitude history...

Zweizeiliger Elementsatz

1 25677U 99019B 26151.07109072 .00000083 00000-0 17993-2 0 9998
2 25677 51.9851 188.5636 0001464 286.2475 93.9795 12.13885097227393
Epoch: 31. Mai 2026 • Age: 9 hours

Aktueller Status

Höhe 1619.8 km
Geschwindigkeit 7.06 km/s
Subsatellitenpunkt 12.65°N, 47.43°W
Startdatum 15. Apr. 1999
Alter 27.1 years
Typ communications

Technische Details

Klassifizierung Payload
Masse 450.00 kg
Trockenmasse 380.00 kg
Gesamtmasse 450.00 kg
Länge 1.50 m
Durchmesser 0.60 m
Spannweite 12.00 m
Form Box + 2 Pan
Hersteller LOR
Bus-Typ LS-400
Phasenstatus In Orbit
Besitzer/Staat GLOBT/US

Most Searched